QPF
0.05 0.05 0.02 0.01 0.02 0.02 0.02 0.02 0.04 0.05 0.06 0.07 0.04 0.03 0.02 0.01 0.03 0.06 0.07 0.07 0.06 0.04 0.04 0.04 0.04 0.05 0.05 0.05 0.05 0.05 0.04 0.04 0.05 0.07 0.08 0.06 0.05 0.05 0.07 0.10 0.14 0.14 0.10 0.07
0.07 0.05 0.03 0.02 0.01 0.01 0.01 0.01 0.01 0.02 0.03 0.03 0.02 0.02 0.03 0.02 0.03 0.04 0.04 0.02 0.01 0.01 0.01 0.02 0.03 0.03 0.03 0.04 0.04 0.04 0.04 0.05 0.04 0.06 0.08 0.07 0.07 0.06 0.05 0.06 0.09 0.12 0.10 0.08
0.09 0.03 0.03 0.02 0.01 0.01 0.00 0.01 0.01 0.01 0.02 0.02 0.02 0.02 0.02 0.03 0.02 0.02 0.02 0.01 0.01 0.01 0.01 0.02 0.02 0.02 0.03 0.03 0.04 0.03 0.03 0.03 0.04 0.05 0.06 0.06 0.06 0.08 0.06 0.06 0.07 0.07 0.06 0.05
0.06 0.05 0.04 0.02 0.01 0.00 0.01 0.01 0.01 0.02 0.02 0.02 0.01 0.01 0.01 0.01 0.02 0.02 0.01 0.00 0.00 0.01 0.01 0.02 0.02 0.02 0.02 0.02 0.03 0.03 0.04 0.04 0.04 0.06 0.05 0.06 0.05 0.06 0.07 0.08 0.07 0.07 0.05 0.03
0.06 0.07 0.05 0.03 0.02 0.02 0.02 0.01 0.01 0.01 0.02 0.02 0.01 0.01 0.01 0.01 0.01 0.01 0.01 0.00 0.01 0.01 0.01 0.01 0.01 0.01 0.01 0.02 0.02 0.03 0.03 0.03 0.03 0.04 0.05 0.06 0.04 0.04 0.05 0.06 0.06 0.06 0.05 0.03
0.06 0.09 0.08 0.05 0.04 0.03 0.02 0.03 0.01 0.01 0.02 0.02 0.01 0.02 0.03 0.01 0.01 0.01 0.01 0.01 0.01 0.01 0.01 0.01 0.02 0.02 0.02 0.03 0.02 0.03 0.03 0.03 0.03 0.04 0.05 0.06 0.05 0.05 0.05 0.05 0.05 0.05 0.05 0.03
0.07 0.10 0.07 0.03 0.03 0.04 0.06 0.07 0.03 0.02 0.02 0.03 0.03 0.03 0.02 0.01 0.01 0.01 0.02 0.02 0.01 0.01 0.01 0.02 0.02 0.02 0.03 0.04 0.03 0.04 0.03 0.03 0.04 0.05 0.04 0.05 0.05 0.05 0.05 0.04 0.04 0.04 0.05 0.04
0.08 0.10 0.08 0.03 0.03 0.05 0.07 0.06 0.03 0.02 0.03 0.04 0.04 0.04 0.02 0.02 0.02 0.02 0.02 0.01 0.01 0.02 0.02 0.02 0.02 0.03 0.05 0.06 0.05 0.05 0.03 0.03 0.04 0.04 0.05 0.04 0.04 0.04 0.04 0.04 0.04 0.04 0.04 0.04
0.08 0.08 0.07 0.04 0.03 0.04 0.05 0.04 0.03 0.03 0.03 0.03 0.03 0.03 0.03 0.04 0.03 0.03 0.02 0.02 0.01 0.01 0.02 0.02 0.03 0.04 0.05 0.08 0.08 0.07 0.08 0.05 0.05 0.04 0.05 0.06 0.05 0.05 0.04 0.05 0.05 0.04 0.03 0.03
0.08 0.07 0.08 0.06 0.04 0.03 0.03 0.03 0.03 0.03 0.03 0.02 0.02 0.03 0.05 0.08 0.06 0.03 0.02 0.02 0.02 0.02 0.03 0.04 0.04 0.04 0.04 0.05 0.06 0.06 0.07 0.07 0.06 0.05 0.05 0.05 0.05 0.05 0.05 0.06 0.06 0.05 0.04 0.03
0.07 0.05 0.06 0.05 0.04 0.03 0.03 0.03 0.03 0.03 0.03 0.03 0.03 0.04 0.05 0.07 0.06 0.03 0.01 0.01 0.02 0.03 0.04 0.04 0.03 0.02 0.02 0.03 0.04 0.05 0.05 0.05 0.06 0.08 0.06 0.05 0.06 0.07 0.06 0.05 0.04 0.04 0.05 0.03
0.05 0.03 0.02 0.03 0.02 0.02 0.02 0.02 0.02 0.03 0.03 0.04 0.04 0.06 0.07 0.04 0.04 0.04 0.03 0.02 0.01 0.01 0.03 0.02 0.02 0.02 0.02 0.03 0.03 0.04 0.04 0.03 0.03 0.04 0.04 0.03 0.03 0.06 0.07 0.05 0.04 0.04 0.04 0.03
0.01 0.01 0.01 0.01 0.01 0.01 0.01 0.01 0.01 0.03 0.03 0.04 0.03 0.06 0.08 0.04 0.04 0.03 0.03 0.03 0.03 0.02 0.02 0.02 0.01 0.02 0.03 0.04 0.02 0.03 0.04 0.04 0.02 0.02 0.02 0.03 0.03 0.04 0.05 0.05 0.05 0.04 0.03 0.03
0.00 0.01 0.01 0.01 0.01 0.01 0.02 0.01 0.02 0.02 0.03 0.03 0.03 0.03 0.03 0.03 0.04 0.04 0.04 0.04 0.03 0.03 0.03 0.02 0.02 0.02 0.04 0.03 0.02 0.03 0.03 0.03 0.02 0.02 0.02 0.02 0.04 0.06 0.06 0.05 0.04 0.04 0.03 0.02
0.00 0.01 0.01 0.01 0.01 0.01 0.01 0.01 0.02 0.02 0.03 0.02 0.02 0.02 0.02 0.02 0.03 0.03 0.02 0.03 0.02 0.02 0.03 0.02 0.02 0.03 0.03 0.03 0.03 0.03 0.03 0.03 0.03 0.02 0.02 0.02 0.03 0.05 0.06 0.06 0.06 0.05 0.03 0.02
0.02 0.01 0.01 0.01 0.01 0.01 0.01 0.01 0.02 0.02 0.02 0.02 0.01 0.01 0.02 0.02 0.03 0.02 0.03 0.04 0.04 0.05 0.04 0.03 0.02 0.02 0.02 0.03 0.03 0.03 0.03 0.03 0.03 0.02 0.02 0.02 0.02 0.04 0.06 0.07 0.07 0.07 0.05 0.05
0.04 0.03 0.02 0.02 0.01 0.01 0.01 0.02 0.02 0.02 0.02 0.01 0.01 0.01 0.01 0.02 0.03 0.03 0.03 0.04 0.04 0.04 0.04 0.03 0.02 0.01 0.01 0.03 0.03 0.02 0.02 0.02 0.02 0.01 0.02 0.02 0.02 0.03 0.04 0.06 0.07 0.07 0.06 0.06
0.03 0.02 0.01 0.01 0.01 0.01 0.01 0.02 0.02 0.02 0.01 0.01 0.01 0.00 0.01 0.02 0.03 0.03 0.03 0.03 0.04 0.04 0.05 0.04 0.02 0.01 0.01 0.02 0.02 0.01 0.01 0.02 0.02 0.01 0.02 0.02 0.03 0.04 0.05 0.06 0.06 0.07 0.08 0.08
0.01 0.01 0.01 0.01 0.01 0.01 0.02 0.02 0.02 0.01 0.01 0.01 0.01 0.01 0.01 0.02 0.02 0.02 0.02 0.04 0.06 0.06 0.05 0.04 0.02 0.01 0.02 0.02 0.02 0.02 0.02 0.02 0.03 0.03 0.03 0.04 0.04 0.06 0.07 0.08 0.07 0.07 0.08 0.09
0.01 0.01 0.01 0.01 0.01 0.01 0.02 0.02 0.02 0.01 0.01 0.01 0.01 0.01 0.01 0.02 0.02 0.01 0.02 0.04 0.05 0.05 0.04 0.03 0.02 0.02 0.02 0.02 0.02 0.01 0.02 0.02 0.03 0.04 0.04 0.05 0.05 0.06 0.07 0.07 0.07 0.07 0.08 0.07
0.01 0.01 0.01 0.01 0.01 0.01 0.02 0.02 0.02 0.01 0.01 0.01 0.01 0.01 0.01 0.02 0.02 0.02 0.03 0.04 0.04 0.04 0.03 0.02 0.02 0.02 0.01 0.01 0.01 0.01 0.02 0.02 0.02 0.04 0.05 0.04 0.04 0.05 0.06 0.07 0.08 0.09 0.09 0.07
0.01 0.01 0.01 0.01 0.01 0.02 0.03 0.02 0.01 0.01 0.01 0.01 0.01 0.01 0.01 0.02 0.02 0.03 0.04 0.04 0.04 0.03 0.02 0.02 0.02 0.02 0.01 0.01 0.01 0.01 0.02 0.03 0.03 0.04 0.06 0.05 0.05 0.04 0.04 0.06 0.08 0.08 0.08 0.07
0.02 0.02 0.01 0.02 0.02 0.02 0.02 0.02 0.02 0.01 0.01 0.01 0.01 0.01 0.02 0.02 0.02 0.03 0.05 0.03 0.02 0.01 0.01 0.01 0.01 0.02 0.02 0.02 0.01 0.02 0.02 0.03 0.04 0.05 0.06 0.05 0.05 0.05 0.05 0.05 0.05 0.05 0.05 0.04
0.02 0.02 0.02 0.02 0.02 0.01 0.02 0.02 0.02 0.01 0.01 0.00 0.00 0.01 0.01 0.02 0.02 0.02 0.03 0.02 0.02 0.01 0.01 0.01 0.01 0.01 0.02 0.03 0.02 0.02 0.02 0.02 0.03 0.04 0.06 0.06 0.05 0.05 0.06 0.05 0.05 0.06 0.05 0.04
0.02 0.02 0.02 0.02 0.02 0.02 0.02 0.02 0.02 0.01 0.01 0.01 0.01 0.01 0.01 0.02 0.02 0.02 0.02 0.02 0.02 0.01 0.00 0.01 0.01 0.01 0.02 0.03 0.03 0.03 0.03 0.03 0.03 0.03 0.04 0.06 0.07 0.07 0.08 0.08 0.07 0.07 0.07 0.07
0.03 0.03 0.03 0.03 0.03 0.03 0.03 0.02 0.01 0.01 0.02 0.04 0.04 0.02 0.01 0.02 0.02 0.02 0.02 0.01 0.01 0.01 0.01 0.01 0.01 0.01 0.02 0.03 0.04 0.04 0.04 0.04 0.04 0.04 0.05 0.05 0.05 0.06 0.07 0.08 0.07 0.07 0.07 0.08
0.04 0.04 0.04 0.04 0.04 0.05 0.04 0.04 0.03 0.02 0.02 0.03 0.04 0.03 0.02 0.03 0.04 0.03 0.02 0.02 0.02 0.02 0.02 0.02 0.01 0.02 0.02 0.03 0.04 0.04 0.03 0.04 0.05 0.05 0.05 0.05 0.05 0.04 0.05 0.07 0.07 0.07 0.06 0.06
MSLP
1001.43 1002.13 1002.73 1003.18 1003.43 1003.48 1003.33 1003.02 1002.56 1002.01 1001.39 1000.75 1000.12 999.53 999.00 998.58 998.29 998.16 998.22 998.48 998.95 999.62 1000.44 1001.39 1002.40 1003.43 1004.41 1005.32 1006.10 1006.76 1007.29 1007.71 1008.04 1008.31 1008.53 1008.73 1008.91 1009.08 1009.23 1009.35 1009.43 1009.48 1009.49 1009.48
1001.17 1001.71 1002.08 1002.26 1002.22 1002.00 1001.64 1001.20 1000.74 1000.31 999.95 999.67 999.48 999.38 999.34 999.37 999.46 999.61 999.85 1000.19 1000.64 1001.21 1001.89 1002.65 1003.48 1004.32 1005.14 1005.89 1006.55 1007.10 1007.54 1007.88 1008.14 1008.36 1008.54 1008.70 1008.86 1009.01 1009.15 1009.25 1009.32 1009.35 1009.34 1009.29
1000.84 1001.18 1001.30 1001.19 1000.86 1000.38 999.82 999.28 998.83 998.53 998.42 998.49 998.73 999.09 999.52 999.97 1000.43 1000.86 1001.28 1001.70 1002.14 1002.62 1003.16 1003.76 1004.40 1005.06 1005.71 1006.31 1006.85 1007.30 1007.66 1007.94 1008.16 1008.34 1008.49 1008.63 1008.77 1008.91 1009.03 1009.12 1009.18 1009.18 1009.14 1009.06
1000.53 1000.65 1000.53 1000.16 999.58 998.89 998.19 997.58 997.16 996.99 997.11 997.49 998.10 998.85 999.68 1000.50 1001.26 1001.93 1002.50 1002.97 1003.39 1003.79 1004.20 1004.63 1005.10 1005.59 1006.09 1006.56 1006.99 1007.36 1007.67 1007.91 1008.10 1008.25 1008.38 1008.51 1008.64 1008.75 1008.86 1008.93 1008.96 1008.95 1008.88 1008.77
1000.29 1000.24 999.92 999.36 998.62 997.80 997.02 996.40 996.04 996.01 996.32 996.95 997.85 998.90 1000.01 1001.10 1002.07 1002.89 1003.54 1004.03 1004.41 1004.71 1004.99 1005.28 1005.60 1005.94 1006.31 1006.68 1007.03 1007.35 1007.61 1007.82 1007.99 1008.12 1008.24 1008.34 1008.45 1008.54 1008.61 1008.66 1008.66 1008.62 1008.54 1008.41
1000.19 1000.01 999.59 998.94 998.13 997.28 996.51 995.95 995.68 995.77 996.24 997.04 998.12 999.36 1000.64 1001.85 1002.92 1003.80 1004.46 1004.93 1005.23 1005.44 1005.60 1005.76 1005.96 1006.19 1006.46 1006.75 1007.04 1007.31 1007.55 1007.74 1007.88 1008.00 1008.09 1008.16 1008.22 1008.27 1008.31 1008.32 1008.29 1008.23 1008.12 1007.99
1000.23 1000.01 999.57 998.94 998.18 997.40 996.72 996.26 996.11 996.32 996.90 997.80 998.96 1000.25 1001.56 1002.79 1003.85 1004.69 1005.30 1005.69 1005.91 1006.02 1006.09 1006.15 1006.25 1006.41 1006.62 1006.86 1007.11 1007.35 1007.56 1007.72 1007.84 1007.92 1007.97 1007.99 1008.00 1007.99 1007.97 1007.93 1007.87 1007.78 1007.67 1007.54
1000.39 1000.22 999.86 999.33 998.70 998.08 997.56 997.25 997.22 997.53 998.17 999.10 1000.24 1001.48 1002.72 1003.86 1004.82 1005.55 1006.06 1006.35 1006.48 1006.51 1006.51 1006.51 1006.56 1006.68 1006.85 1007.07 1007.30 1007.52 1007.70 1007.83 1007.91 1007.93 1007.92 1007.87 1007.80 1007.73 1007.64 1007.54 1007.44 1007.33 1007.21 1007.09
1000.65 1000.59 1000.37 1000.01 999.58 999.16 998.83 998.68 998.78 999.16 999.80 1000.69 1001.74 1002.85 1003.94 1004.92 1005.72 1006.32 1006.70 1006.90 1006.96 1006.94 1006.90 1006.89 1006.93 1007.04 1007.21 1007.42 1007.64 1007.84 1007.99 1008.08 1008.10 1008.05 1007.96 1007.82 1007.67 1007.51 1007.35 1007.19 1007.05 1006.91 1006.79 1006.68
1000.96 1001.04 1001.00 1000.85 1000.64 1000.43 1000.29 1000.29 1000.48 1000.89 1001.50 1002.29 1003.19 1004.13 1005.03 1005.82 1006.45 1006.90 1007.18 1007.31 1007.34 1007.31 1007.29 1007.30 1007.38 1007.52 1007.71 1007.92 1008.13 1008.30 1008.41 1008.44 1008.39 1008.27 1008.08 1007.85 1007.60 1007.35 1007.12 1006.90 1006.72 1006.57 1006.45 1006.35
1001.31 1001.54 1001.67 1001.71 1001.69 1001.66 1001.68 1001.79 1002.04 1002.44 1002.98 1003.65 1004.39 1005.14 1005.84 1006.45 1006.93 1007.27 1007.48 1007.59 1007.63 1007.65 1007.68 1007.76 1007.90 1008.08 1008.30 1008.53 1008.73 1008.86 1008.92 1008.88 1008.75 1008.53 1008.25 1007.93 1007.59 1007.26 1006.96 1006.69 1006.48 1006.31 1006.18 1006.09
1001.68 1002.02 1002.28 1002.46 1002.59 1002.69 1002.81 1002.99 1003.25 1003.61 1004.07 1004.60 1005.18 1005.75 1006.29 1006.76 1007.14 1007.42 1007.62 1007.75 1007.85 1007.95 1008.08 1008.25 1008.46 1008.70 1008.95 1009.18 1009.35 1009.44 1009.44 1009.32 1009.11 1008.81 1008.44 1008.03 1007.62 1007.22 1006.87 1006.57 1006.32 1006.14 1006.01 1005.93
1002.06 1002.46 1002.79 1003.05 1003.26 1003.43 1003.60 1003.80 1004.04 1004.35 1004.71 1005.13 1005.57 1006.02 1006.45 1006.83 1007.17 1007.44 1007.68 1007.88 1008.07 1008.28 1008.51 1008.76 1009.04 1009.32 1009.59 1009.80 1009.93 1009.97 1009.89 1009.71 1009.41 1009.03 1008.60 1008.13 1007.67 1007.23 1006.84 1006.52 1006.26 1006.07 1005.93 1005.84
1002.42 1002.84 1003.18 1003.47 1003.70 1003.89 1004.06 1004.25 1004.46 1004.71 1005.00 1005.33 1005.69 1006.06 1006.44 1006.79 1007.13 1007.45 1007.75 1008.05 1008.35 1008.66 1008.98 1009.31 1009.63 1009.93 1010.18 1010.35 1010.43 1010.40 1010.25 1010.00 1009.64 1009.20 1008.72 1008.22 1007.74 1007.28 1006.89 1006.55 1006.29 1006.09 1005.95 1005.85
1002.75 1003.13 1003.46 1003.72 1003.94 1004.12 1004.28 1004.44 1004.63 1004.84 1005.09 1005.38 1005.70 1006.06 1006.42 1006.80 1007.19 1007.57 1007.96 1008.35 1008.74 1009.13 1009.51 1009.88 1010.22 1010.50 1010.71 1010.82 1010.83 1010.73 1010.51 1010.20 1009.79 1009.33 1008.83 1008.33 1007.85 1007.40 1007.01 1006.69 1006.43 1006.22 1006.07 1005.94
1003.01 1003.34 1003.62 1003.86 1004.05 1004.21 1004.37 1004.52 1004.70 1004.92 1005.17 1005.46 1005.79 1006.17 1006.57 1007.00 1007.44 1007.90 1008.36 1008.82 1009.27 1009.71 1010.12 1010.49 1010.79 1011.03 1011.17 1011.21 1011.15 1010.97 1010.70 1010.34 1009.92 1009.45 1008.96 1008.48 1008.03 1007.62 1007.25 1006.95 1006.69 1006.48 1006.30 1006.15
1003.18 1003.47 1003.71 1003.92 1004.10 1004.27 1004.44 1004.63 1004.84 1005.08 1005.37 1005.71 1006.09 1006.51 1006.97 1007.45 1007.95 1008.46 1008.97 1009.47 1009.94 1010.38 1010.77 1011.10 1011.35 1011.51 1011.58 1011.55 1011.41 1011.18 1010.87 1010.49 1010.07 1009.62 1009.17 1008.73 1008.33 1007.96 1007.63 1007.34 1007.09 1006.87 1006.67 1006.47
1003.25 1003.52 1003.76 1003.97 1004.18 1004.38 1004.60 1004.85 1005.12 1005.43 1005.79 1006.19 1006.63 1007.10 1007.61 1008.13 1008.67 1009.20 1009.72 1010.22 1010.67 1011.08 1011.42 1011.68 1011.86 1011.95 1011.94 1011.84 1011.65 1011.39 1011.06 1010.69 1010.29 1009.89 1009.49 1009.10 1008.75 1008.42 1008.13 1007.86 1007.60 1007.37 1007.13 1006.90
1003.28 1003.56 1003.82 1004.08 1004.34 1004.61 1004.91 1005.23 1005.59 1005.99 1006.42 1006.88 1007.37 1007.89 1008.42 1008.96 1009.49 1010.01 1010.50 1010.96 1011.36 1011.71 1011.98 1012.18 1012.29 1012.32 1012.25 1012.11 1011.90 1011.63 1011.31 1010.97 1010.61 1010.26 1009.91 1009.59 1009.28 1008.99 1008.72 1008.46 1008.20 1007.94 1007.67 1007.39
1003.33 1003.65 1003.96 1004.28 1004.62 1004.98 1005.37 1005.78 1006.22 1006.69 1007.18 1007.69 1008.21 1008.73 1009.25 1009.77 1010.26 1010.73 1011.17 1011.56 1011.90 1012.18 1012.39 1012.53 1012.59 1012.58 1012.50 1012.34 1012.14 1011.89 1011.60 1011.30 1011.00 1010.69 1010.40 1010.12 1009.85 1009.59 1009.33 1009.07 1008.80 1008.51 1008.20 1007.88
1003.48 1003.85 1004.23 1004.63 1005.04 1005.48 1005.95 1006.44 1006.94 1007.46 1007.98 1008.50 1009.00 1009.50 1009.98 1010.43 1010.85 1011.25 1011.61 1011.92 1012.20 1012.42 1012.58 1012.69 1012.74 1012.72 1012.64 1012.51 1012.34 1012.13 1011.89 1011.64 1011.38 1011.13 1010.87 1010.62 1010.37 1010.12 1009.86 1009.59 1009.29 1008.98 1008.64 1008.28
1003.79 1004.22 1004.66 1005.12 1005.60 1006.10 1006.62 1007.14 1007.67 1008.20 1008.71 1009.19 1009.65 1010.08 1010.48 1010.85 1011.18 1011.49 1011.77 1012.01 1012.23 1012.41 1012.55 1012.65 1012.70 1012.71 1012.67 1012.59 1012.46 1012.30 1012.12 1011.91 1011.69 1011.46 1011.22 1010.98 1010.74 1010.48 1010.21 1009.92 1009.60 1009.26 1008.90 1008.52
1004.29 1004.76 1005.24 1005.73 1006.24 1006.76 1007.30 1007.82 1008.34 1008.83 1009.29 1009.72 1010.10 1010.44 1010.74 1011.00 1011.24 1011.46 1011.66 1011.84 1012.01 1012.17 1012.31 1012.42 1012.51 1012.56 1012.57 1012.54 1012.47 1012.35 1012.20 1012.03 1011.82 1011.60 1011.37 1011.12 1010.86 1010.59 1010.30 1009.99 1009.66 1009.31 1008.94 1008.56
1004.94 1005.42 1005.90 1006.40 1006.90 1007.42 1007.92 1008.42 1008.89 1009.32 1009.71 1010.05 1010.34 1010.58 1010.77 1010.94 1011.09 1011.22 1011.35 1011.49 1011.63 1011.78 1011.93 1012.07 1012.19 1012.29 1012.35 1012.36 1012.32 1012.24 1012.12 1011.95 1011.74 1011.51 1011.26 1010.99 1010.70 1010.41 1010.11 1009.79 1009.46 1009.12 1008.76 1008.39
1005.66 1006.11 1006.58 1007.04 1007.52 1007.99 1008.45 1008.89 1009.30 1009.66 1009.97 1010.22 1010.42 1010.57 1010.68 1010.76 1010.83 1010.90 1010.98 1011.08 1011.20 1011.34 1011.50 1011.66 1011.81 1011.93 1012.02 1012.06 1012.04 1011.97 1011.84 1011.66 1011.43 1011.17 1010.89 1010.59 1010.29 1009.98 1009.67 1009.35 1009.04 1008.72 1008.39 1008.06
1006.34 1006.75 1007.16 1007.58 1008.00 1008.42 1008.83 1009.21 1009.56 1009.87 1010.11 1010.30 1010.43 1010.52 1010.56 1010.58 1010.59 1010.61 1010.65 1010.72 1010.82 1010.95 1011.10 1011.26 1011.41 1011.54 1011.63 1011.67 1011.64 1011.55 1011.40 1011.19 1010.94 1010.65 1010.33 1010.01 1009.69 1009.37 1009.07 1008.77 1008.49 1008.21 1007.93 1007.65
1006.88 1007.24 1007.59 1007.96 1008.33 1008.70 1009.07 1009.41 1009.73 1009.99 1010.21 1010.37 1010.46 1010.51 1010.52 1010.51 1010.48 1010.47 1010.48 1010.51 1010.58 1010.68 1010.80 1010.94 1011.06 1011.17 1011.23 1011.23 1011.18 1011.06 1010.87 1010.63 1010.34 1010.02 1009.69 1009.35 1009.02 1008.72 1008.44 1008.18 1007.94 1007.71 1007.49 1007.27
Thickness
5738 5747 5750 5748 5750 5752 5749 5746 5736 5735 5733 5735 5740 5742 5742 5744 5743 5740 5737 5735 5731 5729 5728 5726 5724 5722 5721 5719 5717 5714 5710 5706 5702 5700 5697 5694 5690 5688 5685 5681 5678 5674 5669 5666
5726 5739 5743 5740 5744 5746 5746 5746 5741 5736 5730 5740 5743 5740 5736 5736 5736 5732 5730 5729 5728 5725 5722 5720 5718 5716 5714 5712 5711 5709 5705 5702 5700 5697 5694 5690 5687 5685 5681 5678 5674 5670 5666 5662
5712 5729 5730 5720 5735 5739 5739 5743 5737 5724 5726 5732 5729 5729 5730 5730 5728 5725 5724 5724 5722 5719 5716 5714 5713 5711 5708 5707 5707 5704 5701 5699 5696 5694 5690 5687 5684 5681 5677 5674 5670 5666 5662 5658
5706 5709 5695 5721 5745 5741 5733 5732 5735 5734 5730 5729 5726 5726 5728 5727 5722 5718 5719 5718 5716 5713 5711 5709 5708 5706 5704 5703 5701 5699 5697 5694 5691 5689 5687 5684 5680 5677 5674 5670 5666 5661 5658 5655
5700 5697 5701 5719 5731 5732 5722 5715 5725 5722 5722 5723 5725 5720 5715 5719 5717 5715 5714 5712 5710 5708 5705 5703 5701 5700 5699 5697 5696 5694 5692 5690 5688 5685 5682 5679 5676 5673 5670 5666 5662 5659 5655 5652
5695 5687 5682 5697 5720 5730 5721 5701 5713 5714 5712 5713 5712 5700 5701 5711 5710 5709 5707 5705 5703 5702 5699 5695 5694 5694 5692 5691 5689 5688 5687 5686 5684 5681 5678 5674 5672 5669 5666 5663 5659 5656 5652 5650
5685 5680 5682 5696 5712 5717 5691 5683 5702 5706 5705 5704 5699 5698 5701 5705 5703 5701 5700 5698 5697 5694 5690 5688 5688 5687 5685 5684 5683 5684 5683 5681 5680 5677 5675 5672 5669 5667 5663 5660 5656 5653 5650 5647
5676 5666 5663 5688 5694 5684 5678 5688 5692 5695 5696 5695 5695 5697 5698 5698 5695 5693 5691 5690 5688 5686 5683 5682 5682 5680 5678 5677 5678 5678 5677 5676 5674 5672 5671 5669 5665 5662 5660 5656 5653 5649 5646 5644
5664 5658 5667 5675 5676 5678 5682 5681 5684 5686 5687 5688 5688 5688 5687 5687 5685 5683 5682 5681 5680 5678 5677 5676 5675 5674 5671 5672 5673 5672 5670 5668 5667 5666 5664 5663 5660 5657 5655 5652 5649 5647 5644 5641
5653 5655 5662 5667 5670 5672 5675 5675 5678 5679 5679 5680 5679 5678 5677 5675 5673 5672 5672 5672 5672 5670 5668 5667 5667 5667 5666 5667 5666 5665 5662 5660 5661 5659 5658 5657 5655 5654 5650 5647 5645 5643 5641 5639
5641 5646 5653 5653 5657 5661 5665 5668 5668 5669 5670 5669 5669 5667 5666 5665 5664 5662 5663 5663 5663 5661 5659 5659 5659 5659 5660 5660 5659 5656 5654 5654 5654 5653 5652 5650 5649 5646 5645 5642 5639 5637 5637 5636
5628 5636 5637 5639 5647 5653 5654 5656 5657 5657 5658 5659 5659 5658 5656 5656 5655 5655 5655 5654 5653 5653 5652 5651 5651 5651 5653 5653 5652 5649 5647 5647 5647 5647 5646 5645 5644 5641 5638 5637 5635 5634 5632 5631
5628 5632 5634 5637 5641 5644 5644 5646 5648 5648 5648 5648 5649 5649 5647 5647 5648 5647 5646 5645 5644 5644 5644 5644 5644 5643 5644 5645 5644 5642 5641 5641 5641 5642 5642 5641 5640 5638 5635 5632 5631 5629 5629 5627
5622 5623 5623 5627 5630 5634 5636 5638 5638 5638 5639 5640 5639 5639 5640 5639 5639 5637 5636 5636 5636 5637 5637 5637 5636 5636 5636 5637 5635 5634 5634 5635 5635 5636 5637 5637 5636 5635 5634 5632 5630 5628 5625 5623
5611 5614 5615 5619 5622 5624 5627 5628 5627 5627 5628 5628 5629 5629 5630 5629 5628 5628 5629 5630 5630 5629 5629 5629 5628 5628 5629 5629 5627 5627 5627 5628 5628 5630 5631 5631 5632 5632 5631 5630 5629 5627 5625 5622
5602 5606 5608 5609 5610 5613 5615 5617 5616 5616 5618 5619 5619 5619 5620 5621 5620 5621 5622 5623 5621 5620 5621 5621 5620 5621 5622 5621 5619 5620 5620 5620 5620 5623 5625 5626 5627 5627 5627 5626 5625 5624 5622 5620
5588 5590 5594 5597 5600 5602 5604 5606 5608 5609 5610 5610 5611 5612 5612 5612 5612 5612 5612 5613 5613 5613 5613 5613 5613 5614 5615 5614 5613 5613 5614 5615 5613 5617 5619 5620 5621 5622 5622 5622 5621 5620 5620 5619
5582 5584 5586 5589 5591 5594 5596 5599 5600 5601 5602 5602 5604 5604 5603 5602 5602 5602 5603 5604 5604 5604 5605 5606 5607 5607 5608 5608 5607 5607 5608 5609 5610 5611 5613 5614 5616 5617 5618 5617 5617 5617 5617 5616
5575 5577 5579 5582 5584 5586 5588 5590 5592 5593 5594 5595 5594 5593 5593 5594 5594 5594 5595 5595 5594 5594 5596 5599 5598 5600 5600 5600 5599 5601 5603 5604 5605 5606 5607 5608 5610 5612 5612 5612 5612 5612 5612 5611
5566 5569 5571 5574 5577 5578 5579 5581 5583 5584 5586 5586 5585 5584 5584 5585 5586 5586 5586 5586 5586 5587 5589 5590 5592 5592 5593 5594 5592 5595 5597 5598 5599 5600 5601 5603 5605 5606 5607 5607 5607 5607 5607 5606
5558 5560 5562 5564 5567 5570 5571 5573 5574 5575 5577 5578 5577 5576 5576 5577 5579 5579 5579 5579 5580 5581 5582 5582 5583 5584 5586 5585 5585 5589 5590 5591 5592 5593 5594 5596 5598 5599 5600 5600 5601 5601 5602 5601
5550 5551 5553 5555 5557 5560 5563 5565 5567 5568 5569 5570 5570 5570 5570 5570 5571 5572 5572 5573 5574 5573 5575 5577 5577 5575 5576 5576 5581 5583 5584 5585 5586 5587 5588 5589 5591 5591 5592 5593 5594 5594 5595 5595
5541 5542 5544 5546 5548 5551 5555 5558 5560 5561 5563 5564 5564 5564 5564 5565 5566 5566 5565 5567 5568 5566 5568 5570 5568 5568 5567 5571 5574 5576 5578 5579 5579 5581 5582 5584 5585 5585 5586 5587 5588 5589 5588 5588
5532 5534 5536 5539 5542 5544 5547 5550 5553 5555 5557 5558 5559 5559 5559 5560 5560 5562 5562 5561 5560 5560 5563 5562 5561 5561 5561 5566 5568 5570 5572 5572 5574 5575 5576 5577 5578 5579 5579 5580 5582 5583 5583 5583
5527 5528 5531 5533 5535 5538 5541 5544 5546 5548 5549 5551 5552 5553 5554 5554 5553 5555 5556 5557 5555 5554 5557 5556 5555 5555 5558 5562 5564 5565 5566 5566 5567 5568 5569 5570 5570 5572 5572 5573 5575 5576 5577 5577
5520 5522 5524 5526 5529 5531 5535 5537 5539 5540 5542 5543 5543 5545 5546 5547 5548 5549 5550 5551 5551 5549 5551 5552 5552 5551 5554 5556 5558 5558 5559 5559 5560 5561 5562 5562 5563 5564 5565 5566 5568 5570 5571 5571
5516 5517 5520 5523 5524 5525 5527 5528 5530 5532 5534 5535 5536 5537 5539 5540 5542 5543 5544 5544 5544 5545 5546 5546 5548 5548 5549 5550 5551 5551 5551 5552 5552 5553 5554 5554 5555 5556 5557 5558 5560 5562 5564 5564